Overview Statistics Trail Chart Weather Telemetry Raw packets
 

This is the latest recevied weather packets stored in our database for station/object KC2GYU. If no packets are shown the sender has not sent any weather packets the latest 10 day(s).

<< 26 27 28 29 30 31 32 >>
Time Temp. Humidity Pressure Rain* Wind** Luminosity Snow
1777933005 17.78° C 75% 1011.7 hPa 0 mm - 52 W/m² -
1777932725 17.78° C 74% 1011.7 hPa 0 mm - 74 W/m² -
1777932399 17.78° C 73% 1011.7 hPa 0 mm - 174 W/m² -
1777932097 18.33° C 73% 1012 hPa 0 mm - 216 W/m² -
1777931792 18.33° C 73% 1011.7 hPa 0 mm - 231 W/m² -
1777931490 18.33° C 73% 1011.9 hPa 0 mm - 246 W/m² -
1777931186 18.33° C 73% 1011.7 hPa 0 mm - 262 W/m² -
1777930882 18.89° C 73% 1012 hPa 0 mm - 283 W/m² -
1777930579 18.89° C 74% 1011.8 hPa 0 mm - 298 W/m² -
1777930276 18.89° C 73% 1011.8 hPa 0 mm - 290 W/m² -
1777929972 18.89° C 73% 1011.8 hPa 0 mm - 318 W/m² -
1777929669 18.89° C 73% 1012 hPa 0 mm - 348 W/m² -
1777929366 19.44° C 73% 1012 hPa 0 mm - 327 W/m² -
1777929063 19.44° C 71% 1012.1 hPa 0 mm - 306 W/m² -
1777928760 19.44° C 71% 1012.1 hPa 0 mm - 386 W/m² -
1777928456 18.89° C 71% 1012.2 hPa 0 mm - 445 W/m² -
1777928154 19.44° C 71% 1012.2 hPa 0 mm - 477 W/m² -
1777927852 19.44° C 71% 1012.3 hPa 0 mm - 485 W/m² -
1777927550 19.44° C 72% 1012.3 hPa 0 mm - 393 W/m² -
1777927244 18.33° C 73% 1012.3 hPa 0 mm - 522 W/m² -
1777926941 18.89° C 73% 1012.4 hPa 0 mm - 543 W/m² -
1777926638 18.89° C 73% 1012.6 hPa 0 mm - 537 W/m² -
1777926333 18.89° C 73% 1012.5 hPa 0 mm - 561 W/m² -
1777926031 18.33° C 74% 1012.4 hPa 0 mm - 588 W/m² -
1777925727 18.89° C 72% 1012.6 hPa 0 mm - 595 W/m² -

* Rain latest hour (hover to see other rain measurements)
** Current wind speed in m/s (hover to see current wind gust speed)